PRAETORIAN SDA_612

Last updated on Sat Jun 27 2026 00:03:47 GMT+0000 (Coordinated Universal Time)

1 65575U 25203L 26177.22068667 .00000182 00000+0 15075-3 0 9991 2 65575 81.3029 2.1381 0009593 162.6169 197.5318 13.85040860 39961
UTC large
Height (km)
Speed (km/s)
/
Latitude / Longitude
Inclination (degrees)
Orbital Period (minutes)
Azimuth
Elevation
Range (km)
Doppler Factor

Next 0 passes for location: London (51.5072 / 0.1276)

No passes found over London.
PRAETORIAN SDA_612